When you browse on this site, cookies collect data to enhance your experience and personalize the content and advertising you see.
Visit our Privacy Policy to learn more. By continuing to use the site, you agree to this use of cookies and data.
  • In Österreich
  • Länderverzeichnis
  • Für 7 Tage
  • Wassertemperatur
  • Wetterkarte
  • News
  • Widgets
  • user-avatar
    Anmelden

    Stündliche Wetter Cordoba

    Heute, 8 Dezember, Sonntag

    Zeit Temperatur Niederschläge Wind Luftdruck Luftfeuchtigkeit
    00:00 +24°C° 0 mm 2 m/S 721 mmHg 39%
    01:00 +23°C° 0 mm 2 m/S 721 mmHg 39%
    02:00 +23°C° 0 mm 2 m/S 721 mmHg 41%
    03:00 +23°C° 0 mm 2 m/S 721 mmHg 42%
    04:00 +23°C° 0 mm 2 m/S 721 mmHg 42%
    05:00 +23°C° 0 mm 2 m/S 721 mmHg 42%
    06:00 +25°C° 0 mm 3 m/S 722 mmHg 38%
    07:00 +26°C° 0 mm 3 m/S 722 mmHg 34%
    08:00 +28°C° 0 mm 4 m/S 723 mmHg 30%
    09:00 +30°C° 0 mm 3 m/S 723 mmHg 28%
    10:00 +31°C° 0 mm 3 m/S 723 mmHg 25%
    11:00 +34°C° 0 mm 3 m/S 723 mmHg 23%
    12:00 +35°C° 0 mm 3 m/S 722 mmHg 22%
    13:00 +35°C° 0 mm 3 m/S 721 mmHg 22%
    14:00 +36°C° 0 mm 3 m/S 721 mmHg 21%
    15:00 +34°C° 0.3 mm 3 m/S 721 mmHg 28%
    16:00 +31°C° 0.3 mm 3 m/S 720 mmHg 35%
    17:00 +28°C° 0.3 mm 3 m/S 720 mmHg 42%
    18:00 +27°C° 0.1 mm 4 m/S 720 mmHg 45%
    19:00 +26°C° 0.1 mm 5 m/S 721 mmHg 48%
    20:00 +25°C° 0.1 mm 5 m/S 721 mmHg 51%
    21:00 +23°C° 0.1 mm 5 m/S 721 mmHg 53%
    22:00 +22°C° 0.1 mm 4 m/S 721 mmHg 54%
    23:00 +22°C° 0.1 mm 3 m/S 722 mmHg 56%

    Morgen, 9 Dezember, Montag

    Zeit Temperatur Niederschläge Wind Luftdruck Luftfeuchtigkeit
    00:00 +22°C° 0 mm 3 m/S 721 mmHg 53%
    01:00 +22°C° 0 mm 3 m/S 721 mmHg 50%
    02:00 +24°C° 0 mm 3 m/S 721 mmHg 47%
    03:00 +24°C° 0 mm 3 m/S 721 mmHg 47%
    04:00 +23°C° 0 mm 2 m/S 721 mmHg 47%
    05:00 +23°C° 0 mm 2 m/S 721 mmHg 47%
    06:00 +26°C° 0 mm 2 m/S 722 mmHg 42%
    07:00 +28°C° 0 mm 3 m/S 722 mmHg 37%
    08:00 +31°C° 0 mm 3 m/S 723 mmHg 32%
    09:00 +34°C° 0 mm 3 m/S 723 mmHg 27%
    10:00 +35°C° 0 mm 3 m/S 722 mmHg 23%
    11:00 +37°C° 0 mm 3 m/S 722 mmHg 19%
    12:00 +37°C° 0 mm 3 m/S 722 mmHg 20%
    13:00 +37°C° 0 mm 3 m/S 721 mmHg 20%
    14:00 +38°C° 0 mm 3 m/S 720 mmHg 20%
    15:00 +38°C° 0 mm 4 m/S 720 mmHg 20%
    16:00 +37°C° 0 mm 4 m/S 719 mmHg 20%
    17:00 +37°C° 0 mm 4 m/S 719 mmHg 20%
    18:00 +35°C° 0 mm 3 m/S 719 mmHg 24%
    19:00 +33°C° 0 mm 3 m/S 719 mmHg 27%
    20:00 +30°C° 0 mm 3 m/S 719 mmHg 30%
    21:00 +29°C° 0 mm 3 m/S 720 mmHg 31%
    22:00 +28°C° 0 mm 3 m/S 720 mmHg 32%
    23:00 +28°C° 0 mm 3 m/S 720 mmHg 33%

    übermorgen, 10 Dezember, Dienstag

    Zeit Temperatur Niederschläge Wind Luftdruck Luftfeuchtigkeit
    00:00 +27°C° 0 mm 3 m/S 720 mmHg 33%
    01:00 +27°C° 0 mm 3 m/S 720 mmHg 33%
    02:00 +27°C° 0 mm 3 m/S 720 mmHg 33%
    03:00 +26°C° 0 mm 3 m/S 720 mmHg 34%
    04:00 +26°C° 0 mm 3 m/S 720 mmHg 36%
    05:00 +25°C° 0 mm 3 m/S 720 mmHg 38%
    06:00 +28°C° 0 mm 3 m/S 721 mmHg 35%
    07:00 +30°C° 0 mm 3 m/S 721 mmHg 32%
    08:00 +34°C° 0 mm 3 m/S 722 mmHg 29%
    09:00 +35°C° 0 mm 3 m/S 722 mmHg 25%
    10:00 +37°C° 0 mm 3 m/S 722 mmHg 22%
    11:00 +39°C° 0 mm 2 m/S 722 mmHg 18%
    12:00 +39°C° 0 mm 3 m/S 721 mmHg 18%
    13:00 +39°C° 0 mm 3 m/S 720 mmHg 18%
    14:00 +39°C° 0 mm 3 m/S 719 mmHg 18%
    15:00 +39°C° 0 mm 3 m/S 719 mmHg 19%
    16:00 +39°C° 0 mm 3 m/S 718 mmHg 19%
    17:00 +39°C° 0 mm 3 m/S 718 mmHg 20%
    18:00 +37°C° 0 mm 3 m/S 718 mmHg 23%
    19:00 +35°C° 0 mm 2 m/S 718 mmHg 27%
    20:00 +32°C° 0 mm 2 m/S 718 mmHg 30%
    21:00 +31°C° 0 mm 2 m/S 718 mmHg 31%
    22:00 +30°C° 0 mm 2 m/S 718 mmHg 33%
    23:00 +29°C° 0 mm 2 m/S 719 mmHg 34%

    11 Dezember, Mittwoch

    Zeit Temperatur Niederschläge Wind Luftdruck Luftfeuchtigkeit
    00:00 +29°C° 0 mm 2 m/S 718 mmHg 35%
    01:00 +29°C° 0 mm 3 m/S 718 mmHg 35%
    02:00 +28°C° 0 mm 3 m/S 717 mmHg 35%
    03:00 +28°C° 0 mm 3 m/S 717 mmHg 37%
    04:00 +28°C° 0 mm 3 m/S 717 mmHg 38%
    05:00 +28°C° 0 mm 3 m/S 717 mmHg 39%
    06:00 +30°C° 0 mm 4 m/S 717 mmHg 36%
    07:00 +34°C° 0 mm 5 m/S 717 mmHg 32%
    08:00 +36°C° 0 mm 6 m/S 717 mmHg 29%
    09:00 +39°C° 0 mm 6 m/S 717 mmHg 26%
    10:00 +41°C° 0 mm 5 m/S 717 mmHg 23%
    11:00 +42°C° 0 mm 5 m/S 716 mmHg 20%
    12:00 +42°C° 0 mm 5 m/S 716 mmHg 20%
    13:00 +42°C° 0 mm 5 m/S 715 mmHg 19%
    14:00 +43°C° 0 mm 4 m/S 715 mmHg 18%
    15:00 +40°C° 0 mm 6 m/S 715 mmHg 23%
    16:00 +38°C° 0 mm 7 m/S 714 mmHg 28%
    17:00 +35°C° 0 mm 8 m/S 714 mmHg 33%
    18:00 +33°C° 0 mm 7 m/S 715 mmHg 40%
    19:00 +29°C° 0 mm 6 m/S 716 mmHg 47%
    20:00 +27°C° 0 mm 5 m/S 716 mmHg 54%
    21:00 +26°C° 0.2 mm 4 m/S 717 mmHg 57%
    22:00 +25°C° 0.2 mm 3 m/S 718 mmHg 60%
    23:00 +24°C° 0.2 mm 2 m/S 718 mmHg 63%

    12 Dezember, Donnerstag

    Zeit Temperatur Niederschläge Wind Luftdruck Luftfeuchtigkeit
    00:00 +23°C° 0 mm 4 m/S 718 mmHg 58%
    01:00 +23°C° 0 mm 6 m/S 719 mmHg 53%
    02:00 +23°C° 0 mm 7 m/S 719 mmHg 48%
    03:00 +23°C° 0 mm 7 m/S 719 mmHg 39%
    04:00 +22°C° 0 mm 7 m/S 720 mmHg 31%
    05:00 +22°C° 0 mm 6 m/S 720 mmHg 22%
    06:00 +23°C° 0 mm 6 m/S 720 mmHg 20%
    07:00 +24°C° 0 mm 6 m/S 721 mmHg 18%
    08:00 +24°C° 0 mm 7 m/S 721 mmHg 16%
    09:00 +27°C° 0 mm 7 m/S 722 mmHg 15%
    10:00 +28°C° 0 mm 6 m/S 722 mmHg 13%
    11:00 +30°C° 0 mm 6 m/S 722 mmHg 12%
    12:00 +32°C° 0 mm 6 m/S 722 mmHg 11%
    13:00 +32°C° 0 mm 6 m/S 722 mmHg 11%
    14:00 +33°C° 0 mm 5 m/S 721 mmHg 11%
    15:00 +33°C° 0 mm 5 m/S 721 mmHg 11%
    16:00 +33°C° 0 mm 5 m/S 721 mmHg 12%
    17:00 +32°C° 0 mm 5 m/S 720 mmHg 12%
    18:00 +29°C° 0 mm 4 m/S 720 mmHg 14%
    19:00 +27°C° 0 mm 3 m/S 721 mmHg 16%
    20:00 +25°C° 0 mm 2 m/S 721 mmHg 18%
    21:00 +24°C° 0 mm 2 m/S 722 mmHg 19%
    22:00 +23°C° 0 mm 2 m/S 722 mmHg 21%
    23:00 +21°C° 0 mm 2 m/S 723 mmHg 23%

    13 Dezember, Freitag

    Zeit Temperatur Niederschläge Wind Luftdruck Luftfeuchtigkeit
    00:00 +20°C° 0 mm 2 m/S 723 mmHg 23%
    01:00 +19°C° 0 mm 2 m/S 723 mmHg 24%
    02:00 +19°C° 0 mm 2 m/S 723 mmHg 25%
    03:00 +18°C° 0 mm 2 m/S 723 mmHg 25%
    04:00 +18°C° 0 mm 1 m/S 723 mmHg 26%
    05:00 +18°C° 0 mm 1 m/S 723 mmHg 27%
    06:00 +20°C° 0 mm 1 m/S 724 mmHg 24%
    07:00 +22°C° 0 mm 1 m/S 724 mmHg 22%
    08:00 +24°C° 0 mm 2 m/S 724 mmHg 20%
    09:00 +25°C° 0 mm 3 m/S 724 mmHg 18%
    10:00 +27°C° 0 mm 3 m/S 724 mmHg 16%
    11:00 +29°C° 0 mm 4 m/S 724 mmHg 15%
    12:00 +32°C° 0 mm 5 m/S 724 mmHg 15%
    13:00 +33°C° 0 mm 5 m/S 723 mmHg 14%
    14:00 +34°C° 0 mm 6 m/S 722 mmHg 14%
    15:00 +34°C° 0 mm 6 m/S 722 mmHg 15%
    16:00 +34°C° 0 mm 6 m/S 721 mmHg 17%
    17:00 +33°C° 0 mm 6 m/S 720 mmHg 18%
    18:00 +30°C° 0 mm 5 m/S 720 mmHg 20%
    19:00 +28°C° 0 mm 4 m/S 720 mmHg 23%
    20:00 +26°C° 0 mm 2 m/S 721 mmHg 25%
    21:00 +25°C° 0 mm 2 m/S 721 mmHg 27%
    22:00 +25°C° 0 mm 2 m/S 721 mmHg 28%
    23:00 +24°C° 0 mm 2 m/S 721 mmHg 29%
    Mehr zeigen